• En España
  • Lista de países
  • Para 7 días
  • Temperatura del agua
  • Mapa Satelital
  • El tiempo en el mapa
  • Informadores
  • user-avatar
    Iniciar sesión

    Tiempo cada hora Neuquén

    Hoy, 13 Noviembre, Martes

    Tiempo Temperatura Precipitaciones Viento Presión Humedad
    00:00 +18°C° 0 mm 7 mps 732 mmHg 42%
    01:00 +18°C° 0 mm 8 mps 732 mmHg 43%
    02:00 +17°C° 0 mm 8 mps 732 mmHg 44%
    03:00 +17°C° 0 mm 8 mps 732 mmHg 46%
    04:00 +16°C° 0 mm 9 mps 732 mmHg 47%
    05:00 +17°C° 0 mm 9 mps 732 mmHg 44%
    06:00 +18°C° 0 mm 10 mps 732 mmHg 40%
    07:00 +19°C° 0 mm 11 mps 732 mmHg 37%
    08:00 +22°C° 0 mm 10 mps 732 mmHg 33%
    09:00 +23°C° 0 mm 10 mps 732 mmHg 30%
    10:00 +24°C° 0 mm 9 mps 732 mmHg 26%
    11:00 +26°C° 0 mm 9 mps 731 mmHg 24%
    12:00 +26°C° 0 mm 9 mps 731 mmHg 23%
    13:00 +27°C° 0 mm 9 mps 731 mmHg 21%
    14:00 +27°C° 0 mm 10 mps 730 mmHg 21%
    15:00 +27°C° 0 mm 10 mps 730 mmHg 21%
    16:00 +27°C° 0 mm 11 mps 730 mmHg 20%
    17:00 +24°C° 0 mm 12 mps 730 mmHg 24%
    18:00 +23°C° 0 mm 12 mps 730 mmHg 28%
    19:00 +22°C° 0 mm 13 mps 730 mmHg 31%
    20:00 +20°C° 0 mm 13 mps 730 mmHg 33%
    21:00 +19°C° 0 mm 13 mps 730 mmHg 36%
    22:00 +17°C° 0 mm 13 mps 731 mmHg 38%
    23:00 +17°C° 0 mm 13 mps 730 mmHg 38%

    Mañana, 14 Noviembre, Miércoles

    Tiempo Temperatura Precipitaciones Viento Presión Humedad
    00:00 +15°C° 0 mm 13 mps 730 mmHg 38%
    01:00 +15°C° 0 mm 13 mps 730 mmHg 38%
    02:00 +14°C° 0 mm 12 mps 730 mmHg 38%
    03:00 +14°C° 0 mm 12 mps 730 mmHg 38%
    04:00 +14°C° 0 mm 11 mps 730 mmHg 38%
    05:00 +15°C° 0 mm 12 mps 730 mmHg 36%
    06:00 +15°C° 0 mm 12 mps 731 mmHg 34%
    07:00 +17°C° 0 mm 13 mps 731 mmHg 33%
    08:00 +19°C° 0 mm 13 mps 731 mmHg 31%
    09:00 +20°C° 0 mm 13 mps 731 mmHg 29%
    10:00 +22°C° 0 mm 13 mps 731 mmHg 27%
    11:00 +23°C° 0 mm 12 mps 730 mmHg 25%
    12:00 +26°C° 0 mm 11 mps 729 mmHg 23%
    13:00 +27°C° 0 mm 11 mps 729 mmHg 21%
    14:00 +27°C° 0 mm 11 mps 728 mmHg 21%
    15:00 +27°C° 0 mm 12 mps 728 mmHg 21%
    16:00 +27°C° 0 mm 12 mps 727 mmHg 21%
    17:00 +26°C° 0 mm 12 mps 728 mmHg 25%
    18:00 +23°C° 0 mm 11 mps 728 mmHg 29%
    19:00 +22°C° 0 mm 11 mps 728 mmHg 32%
    20:00 +21°C° 0 mm 11 mps 728 mmHg 34%
    21:00 +19°C° 0 mm 11 mps 728 mmHg 36%
    22:00 +18°C° 0 mm 11 mps 729 mmHg 38%
    23:00 +18°C° 0 mm 11 mps 728 mmHg 40%

    Pasado mañana, 15 Noviembre, Jueves

    Tiempo Temperatura Precipitaciones Viento Presión Humedad
    00:00 +17°C° 0 mm 10 mps 728 mmHg 41%
    01:00 +16°C° 0 mm 10 mps 728 mmHg 43%
    02:00 +14°C° 0 mm 10 mps 729 mmHg 42%
    03:00 +13°C° 0 mm 10 mps 729 mmHg 41%
    04:00 +12°C° 0 mm 11 mps 730 mmHg 40%
    05:00 +12°C° 0 mm 10 mps 731 mmHg 35%
    06:00 +12°C° 0 mm 10 mps 732 mmHg 31%
    07:00 +12°C° 0 mm 10 mps 733 mmHg 27%
    08:00 +13°C° 0 mm 9 mps 734 mmHg 24%
    09:00 +15°C° 0 mm 9 mps 734 mmHg 21%
    10:00 +17°C° 0 mm 8 mps 734 mmHg 18%
    11:00 +18°C° 0 mm 7 mps 734 mmHg 16%
    12:00 +20°C° 0 mm 7 mps 734 mmHg 15%
    13:00 +21°C° 0 mm 6 mps 734 mmHg 13%
    14:00 +21°C° 0 mm 6 mps 733 mmHg 12%
    15:00 +21°C° 0 mm 6 mps 733 mmHg 12%
    16:00 +22°C° 0 mm 5 mps 733 mmHg 11%
    17:00 +21°C° 0 mm 4 mps 733 mmHg 13%
    18:00 +20°C° 0 mm 3 mps 733 mmHg 14%
    19:00 +19°C° 0 mm 2 mps 734 mmHg 15%
    20:00 +19°C° 0 mm 3 mps 734 mmHg 16%
    21:00 +18°C° 0 mm 3 mps 734 mmHg 17%
    22:00 +18°C° 0 mm 4 mps 735 mmHg 17%
    23:00 +16°C° 0 mm 5 mps 734 mmHg 18%

    16 Noviembre, Viernes

    Tiempo Temperatura Precipitaciones Viento Presión Humedad
    00:00 +16°C° 0 mm 6 mps 734 mmHg 20%
    01:00 +15°C° 0 mm 6 mps 733 mmHg 21%
    02:00 +15°C° 0 mm 6 mps 733 mmHg 22%
    03:00 +14°C° 0 mm 6 mps 732 mmHg 23%
    04:00 +14°C° 0 mm 7 mps 732 mmHg 23%
    05:00 +15°C° 0 mm 8 mps 732 mmHg 23%
    06:00 +16°C° 0 mm 10 mps 732 mmHg 23%
    07:00 +18°C° 0 mm 12 mps 732 mmHg 23%
    08:00 +19°C° 0 mm 12 mps 732 mmHg 22%
    09:00 +22°C° 0 mm 12 mps 731 mmHg 21%
    10:00 +23°C° 0 mm 12 mps 731 mmHg 20%
    11:00 +24°C° 0 mm 11 mps 730 mmHg 20%
    12:00 +26°C° 0 mm 10 mps 728 mmHg 19%
    13:00 +26°C° 0 mm 9 mps 727 mmHg 19%
    14:00 +27°C° 0 mm 9 mps 727 mmHg 21%
    15:00 +27°C° 0 mm 8 mps 726 mmHg 22%
    16:00 +27°C° 0 mm 8 mps 726 mmHg 24%
    17:00 +24°C° 0.1 mm 8 mps 726 mmHg 32%
    18:00 +22°C° 0.1 mm 8 mps 726 mmHg 40%
    19:00 +20°C° 0.1 mm 8 mps 726 mmHg 49%
    20:00 +18°C° 0.1 mm 7 mps 726 mmHg 51%
    21:00 +17°C° 0.1 mm 6 mps 726 mmHg 53%
    22:00 +16°C° 0.1 mm 5 mps 727 mmHg 55%
    23:00 +16°C° 0.4 mm 6 mps 727 mmHg 57%

    17 Noviembre, Sábado

    Tiempo Temperatura Precipitaciones Viento Presión Humedad
    00:00 +15°C° 0.4 mm 7 mps 726 mmHg 59%
    01:00 +15°C° 0.4 mm 8 mps 726 mmHg 61%
    02:00 +15°C° 0.7 mm 7 mps 727 mmHg 59%
    03:00 +14°C° 0.7 mm 7 mps 727 mmHg 58%
    04:00 +14°C° 0.7 mm 7 mps 728 mmHg 57%
    05:00 +13°C° 0 mm 9 mps 728 mmHg 53%
    06:00 +14°C° 0 mm 10 mps 728 mmHg 48%
    07:00 +14°C° 0 mm 12 mps 728 mmHg 44%
    08:00 +15°C° 0 mm 12 mps 729 mmHg 40%
    09:00 +17°C° 0 mm 12 mps 729 mmHg 37%
    10:00 +18°C° 0 mm 12 mps 730 mmHg 33%
    11:00 +19°C° 0 mm 12 mps 730 mmHg 30%
    12:00 +21°C° 0 mm 12 mps 730 mmHg 27%
    13:00 +22°C° 0 mm 11 mps 731 mmHg 24%
    14:00 +22°C° 0 mm 13 mps 731 mmHg 24%
    15:00 +20°C° 0 mm 14 mps 731 mmHg 24%
    16:00 +20°C° 0 mm 15 mps 731 mmHg 23%
    17:00 +19°C° 0 mm 14 mps 732 mmHg 27%
    18:00 +17°C° 0 mm 14 mps 733 mmHg 30%
    19:00 +15°C° 0 mm 13 mps 733 mmHg 33%
    20:00 +14°C° 0 mm 12 mps 734 mmHg 36%
    21:00 +14°C° 0 mm 12 mps 734 mmHg 40%
    22:00 +13°C° 0 mm 11 mps 734 mmHg 43%
    23:00 +12°C° 0 mm 11 mps 734 mmHg 44%

    18 Noviembre, Domingo

    Tiempo Temperatura Precipitaciones Viento Presión Humedad
    00:00 +12°C° 0 mm 11 mps 734 mmHg 45%
    01:00 +11°C° 0 mm 10 mps 733 mmHg 47%
    02:00 +11°C° 0 mm 10 mps 733 mmHg 47%
    03:00 +11°C° 0 mm 10 mps 733 mmHg 48%
    04:00 +11°C° 0 mm 9 mps 733 mmHg 49%
    05:00 +12°C° 0 mm 10 mps 734 mmHg 45%
    06:00 +13°C° 0 mm 10 mps 734 mmHg 41%
    07:00 +14°C° 0 mm 11 mps 734 mmHg 38%
    08:00 +17°C° 0 mm 11 mps 734 mmHg 34%
    09:00 +18°C° 0 mm 11 mps 734 mmHg 31%
    10:00 +21°C° 0 mm 11 mps 733 mmHg 27%
    11:00 +22°C° 0 mm 11 mps 733 mmHg 26%
    12:00 +23°C° 0 mm 10 mps 732 mmHg 24%
    13:00 +24°C° 0 mm 10 mps 731 mmHg 22%
    14:00 +24°C° 0 mm 11 mps 731 mmHg 23%
    15:00 +26°C° 0 mm 11 mps 731 mmHg 23%
    16:00 +26°C° 0 mm 11 mps 730 mmHg 24%
    17:00 +24°C° 0 mm 11 mps 731 mmHg 27%
    18:00 +23°C° 0 mm 10 mps 731 mmHg 31%
    19:00 +21°C° 0 mm 10 mps 731 mmHg 34%
    20:00 +21°C° 0 mm 10 mps 732 mmHg 37%
    21:00 +19°C° 0 mm 10 mps 732 mmHg 39%
    22:00 +18°C° 0 mm 10 mps 732 mmHg 41%
    23:00 +18°C° 0 mm 9 mps 732 mmHg 43%
    Mostrar más